Location: Beaurecueil
(43.5122°N, 5.5450°E)
Time: 04:22:51
(UTC+00:00)

Meteor 1-21 - Pass Details

Date: 22 June 2021
Orbit: 846 x 885 km, 81.2° (Epoch: 03 August)

Event Time Altitude Azimuth Distance (km) Brightness Sun altitude
Rises 21:06:00 0° 237° (WSW) 3,420 7.4 -14.3°
Reaches altitude 10° 21:09:22 10° 257° (WSW) 2,482 6.9 -14.7°
Maximum altitude 21:12:52 17° 296° (WNW) 2,047 7.1 -15.0°
Drops below altitude 10° 21:16:23 10° 335° (NNW) 2,482 8.0 -15.4°
Sets 21:19:46 0° 356° (N) 3,420 8.5 -15.7°
